OBJECT W, 62397

Orbit data source: Space-Track

You're viewing an Uncataloged Satellite

Recently launched and/or uncataloged satellites may have evolving metadata. Metadata may include but not limited to: Owner, Maufacturer, Bus, Motor, and Mission.

OBJECT W, 62397 is a satellite in LEO that was launched on Sat, 21 Dec 2024 UTC via an FALCON 9 launch vehicle from the Air Force Western Test Range (AFWTR). Unknown objects in Earth's orbit typically refer to objects detected orbiting the Earth but have not yet been identified or cataloged. These objects could be anything from previously untracked satellites, spent rocket stages, debris from satellite collisions, or even natural meteoroids temporarily captured by Earth's gravity.

Loading next visibility...
Identifier
62397, 2024-247W
Orbit
LEO
Country
Flag of TBDTBD
Related business
None
Manufacturer
Unknown
Mission
Operational Commercial Communications
Bus & Motor
Unknown
Mass
Unknown
Launch date (UTC)
2024-12-21 (1 year ago)
Launch vehicle
FALCON 9
Launch site
Air Force Western Test Range (AFWTR)
Object type
Unknown
Shape & HBR
Box, 0.0 m
Radar Cross Section
0.004 m², Small (<0.1 m²)

Expand to show TLE details & history
Last TLE update: 13 hours ago

TLE from 13 hours ago
0 OBJECT W
1 62397U 24247W   26036.63737087  .00211940  00000-0  20832-2 0  9998
2 62397  44.9894 247.4333 0013783 226.7575 133.2172 15.64520313 63366
Epoch: 2026-02-05T15:17Z
TLE epoch observation values (Epoch: 2026-02-05T15:17:48.843Z)
Latitude
-0.00001°
Longitude
-117.80697°
Altitude
380.995 km
Speed
7.679 km/s
True Right ascension
16h 29m 43s
True Declination
0° 00' 00"
Sunlit
Object was in daylight at epoch
Visualization orbit readout
Latitude
Unknown
Longitude
Unknown
Altitude
Unknown
Speed
Unknown
Apparent Right ascension
Unknown
Apparent Declination
Unknown
Sunlit
N/A
Visualization observer readout
Local Sidereal Time
06:35:43
Azimuth
Unknown
Elevation
Unknown
Doppler factor
Unknown
Orbital elements
Apogee altitude
385.565 km
Perigee altitude
366.946 km
Semi-major axis
6,754.392 km
Eccentricity
0.00138
Inclination
44.9894°
RAAN
247.4333°
Arg. of periapsis
226.7575°
True anomaly
133.33217°
Mean anomaly
133.2172°
Eccentric anomaly
133.2747°
Mean motion
3.90988 °/min
Orbital period
92.07 mins
BSTAR
0.0020832
Loading maneuver chart data...
Computing Atmospheric mass density...
Loading historical data...
Loading historical data...
Loading historical data...
Loading historical data...
Loading historical data...
Loading historical data...
Loading historical data...

Documentation

Showing up to 5 results
|